This is the latest recevied weather packets stored in our database for station/object K0CVS. If no packets are shown the sender has not sent any weather packets the latest 10 day(s).
| Time | Temp. | Humidity | Pressure | Rain* | Wind** | Luminosity | Snow |
|---|---|---|---|---|---|---|---|
| 1777131351 | 20° C | 61% | 1011.5 hPa | 0 mm | - | 65 W/m² | - |
| 1777131051 | 20° C | 62% | 1011.5 hPa | 0 mm | - | 212 W/m² | - |
| 1777130747 | 20° C | 61% | 1011.5 hPa | 0 mm | - | 49 W/m² | - |
| 1777130444 | 20° C | 61% | 1011.7 hPa | 0 mm | - | 323 W/m² | - |
| 1777130139 | 19.44° C | 63% | 1011.4 hPa | 0 mm | - | 223 W/m² | - |
| 1777129836 | 19.44° C | 62% | 1011.5 hPa | 0 mm | - | 125 W/m² | - |
| 1777129531 | 18.89° C | 64% | 1011.7 hPa | 0 mm | - | 63 W/m² | - |
| 1777129230 | 18.89° C | 62% | 1011.6 hPa | 0 mm | - | 41 W/m² | - |
| 1777128926 | 18.89° C | 63% | 1011.6 hPa | 0 mm | - | 59 W/m² | - |
| 1777128622 | 18.33° C | 64% | 1011.3 hPa | 0 mm | - | 37 W/m² | - |
| 1777128321 | 18.33° C | 63% | 1011.4 hPa | 0 mm | - | 49 W/m² | - |
| 1777128017 | 17.78° C | 63% | 1011.3 hPa | 0 mm | - | 157 W/m² | - |
| 1777127715 | 17.78° C | 63% | 1011.5 hPa | 0 mm | - | 105 W/m² | - |
| 1777127412 | 17.22° C | 64% | 1011.5 hPa | 0 mm | - | 45 W/m² | - |
| 1777127107 | 17.22° C | 63% | 1011.5 hPa | 0 mm | - | 57 W/m² | - |
| 1777126804 | 17.22° C | 64% | 1011.5 hPa | 0 mm | - | 38 W/m² | - |
| 1777126500 | 16.67° C | 66% | 1011.6 hPa | 0 mm | - | 79 W/m² | - |
| 1777126195 | 16.67° C | 65% | 1011.6 hPa | 0 mm | - | 29 W/m² | - |
| 1777125892 | 16.11° C | 65% | 1011.5 hPa | 0 mm | - | 37 W/m² | - |
| 1777125588 | 16.11° C | 66% | 1011.3 hPa | 0 mm | - | 28 W/m² | - |
| 1777125283 | 16.11° C | 67% | 1011.4 hPa | 0 mm | - | 38 W/m² | - |
| 1777124983 | 15.56° C | 67% | 1011.4 hPa | 0 mm | - | 95 W/m² | - |
| 1777124681 | 15.56° C | 67% | 1011.6 hPa | 0 mm | - | 28 W/m² | - |
* Rain latest hour (hover to see other rain measurements)
** Current wind speed in m/s (hover to see current wind gust speed)